Location: Julian California
(33.0790°N, 116.6010°W)
Time: 02:00:47
(UTC-07:00)

SeaSat 1 - Pass Details

Date: 19 May 2017
Orbit: 745 x 748 km, 108.0° (Epoch: 28 June)

Event Time Altitude Azimuth Distance (km) Brightness Sun altitude
Exits shadow 23:38:56 29° 12° (NNE) 1,360 4.2 -34.7°
Drops below altitude 10° 23:41:34 10° 351° (N) 2,263 5.7 -34.9°
Sets 23:43:56 0° 345° (NNW) 3,191 6.7 -35.0°
